Location: Unspecified
(0.0000°N, 0.0000°E)
Time: 19:12:45
(UTC-05:00)

Daily predictions for brighter satellites

Satellite Brightness Start Highest point End
(mag) Time Altitude Azimuth Time Altitude Azimuth Time Altitude Azimuth
Ariane H10 3.3 13:06:23 10° WSW 13:09:22 61° S 13:21:03 10° E
Cosmos 2233 Rocket 4.5 13:06:19 10° S 13:12:31 69° W 13:18:44 10° N
ATLAS 5 CENTAUR R/B 4.1 13:11:06 10° S 13:13:03 12° SSE 13:15:48 10° SE
Meteor 1-22 Rocket 4.2 13:10:36 10° S 13:16:15 80° E 13:21:40 10° N
Cosmos 405 Rocket 3.2 13:12:53 10° NNW 13:16:44 69° W 13:20:43 10° S
Cosmos 1953 3.5 13:17:22 10° SE 13:20:31 22° E 13:23:38 10° NE
ARIANE 5 R/B 1.1 13:29:42 10° W 13:32:11 50° S 13:33:33 16° ESE
Cosmos 1437 4.3 13:30:31 10° NE 13:32:46 17° E 13:34:55 10° SE
Cosmos 1816 Rocket 4.5 13:32:56 10° N 13:39:05 88° E 13:45:14 10° S
Cosmos 1805 3.6 13:35:32 10° SSE 13:39:14 40° E 13:42:54 10° NNE
Ariane H10 4.3 13:37:33 10° W 13:41:20 69° N 13:52:33 17° E
Cosmos 1943 4.0 13:38:45 10° SSE 13:43:35 29° ESE 13:48:00 12° NE
Cosmos 1603 3.7 13:39:31 10° SSW 13:45:12 88° WNW 13:50:55 10° NNE
Meteor 2-5 Rocket 3.6 13:40:18 10° N 13:45:49 80° E 13:51:21 10° S
Cosmos 2278 Rocket 2.9 13:41:36 10° NNE 13:46:30 31° ENE 13:51:25 10° SE
Hubble Space Telescope 2.8 13:44:51 10° S 13:46:59 14° SSE 13:48:01 13° SE
SL-19 R/B 4.2 13:43:46 10° SSE 13:49:21 64° ENE 13:54:49 10° N
Meteor 1-24 Rocket 3.9 13:46:13 10° NNE 13:51:18 42° E 13:56:18 10° SSE
SJ-6B 2.7 13:49:58 10° SSE 13:53:43 58° ENE 13:57:31 10° N
Cosmos-2242 2.9 13:49:39 10° S 13:53:54 63° E 13:58:10 10° NNE
ARIANE 5 R/B 1.5 13:52:41 10° W 13:54:37 59° N 13:55:16 40° ENE
Cosmos 921 Rocket 2.8 13:53:00 10° N 13:57:09 89° W 14:01:21 10° S
Cosmos 1544 3.2 13:54:44 10° S 13:58:18 48° E 14:01:53 10° NNE
Delta 7925 Rocket 3.5 13:53:31 10° WSW 13:58:23 80° NNW 14:01:52 24° ENE
Cosmos 1758 3.3 13:57:00 10° S 14:01:01 82° W 14:05:03 10° N
PSLV R/B 4.2 13:58:18 10° NNW 14:00:55 30° NNE 14:00:55 30° NNE
Cosmos 1441 Rocket 3.9 14:01:29 10° NNW 14:05:07 53° W 14:08:50 10° S
Resurs 01 Rocket 2.0 14:05:03 38° E 14:05:14 38° ENE 14:09:21 10° N
Centaur AC-119 3.8 14:04:38 10° WSW 14:05:55 13° SW 14:06:37 12° SSW
Spot 1 4.4 14:07:52 10° SSE 14:12:56 63° ENE 14:17:47 10° N
SeaSat 1 3.6 14:09:40 10° N 14:14:17 42° WNW 14:18:55 10° SW
Cosmos 1378 3.8 14:10:46 10° N 14:13:13 39° NNE 14:13:13 39° NNE
Cosmos 1707 4.4 14:12:06 10° NNW 14:15:36 34° W 14:19:09 10° SSW
CENTAUR R/B 2.6 14:13:23 10° SSW 14:18:58 63° WNW 14:24:46 10° NNE
Sylda 4400 4.4 14:16:48 10° WSW 14:21:39 31° SSW 14:21:54 30° S
ARIANE 2 DEB 4.2 14:09:23 10° W 14:24:31 71° S 14:25:32 53° ESE
Cosmos 1634 Rocket 4.3 14:19:54 10° SSE 14:24:52 42° ESE 14:24:52 42° ESE
Spot 2 Rocket 3.3 14:21:51 10° SSE 14:26:55 76° ENE 14:31:56 10° N
NOAA 12 4.5 14:21:48 10° S 14:26:58 63° WSW 14:32:07 10° NNW
Ariane H10 3.3 14:27:12 10° SW 14:29:36 29° S 14:29:36 29° S
deb Ariane 3.7 14:19:50 10° W 14:32:08 84° N 14:32:24 78° ENE
Aurora 2 Rocket 3.0 14:34:46 10° WSW 14:39:38 87° NNW 14:39:59 79° NE
Skynet4D Del rocket 3.6 14:37:18 10° WNW 14:42:41 74° SSW 14:42:52 73° S
Delta 202 4.2 14:40:30 10° WSW 14:47:07 53° S 14:47:07 53° S
BLOCK DM-SL R/B 4.5 14:01:01 10° W 14:48:45 88° N 14:50:58 57° E
ARIANE 44L R/B 3.8 14:26:00 10° W 14:49:27 63° NNW 14:50:05 59° NNE
Cosmos 2056 Rocket 4.2 14:47:13 10° NNW 14:51:10 49° NNW 14:51:10 49° NNW
Ariane H10-3 3.7 15:18:46 10° W 15:39:29 58° WNW 15:39:29 58° WNW
CZ-3C R/B 3.7 15:39:00 10° WNW 15:52:46 41° NW 15:52:46 41° NW
CZ-3 R/B 4.4 19:47:15 10° WNW 21:08:13 82° SE 21:21:40 10° ESE
ADEOS II 3.6 22:23:33 10° NE 22:35:36 - S 22:27:06 32° ENE
COSMOS 2455 3.7 22:32:09 45° ENE 22:32:30 46° ENE 22:38:12 10° SE
BLOCK DM-SL R/B 4.2 22:40:15 72° W 22:41:13 88° N 23:09:54 10° E
BLOCK DM-SL R/B 4.2 22:40:15 72° W 22:41:14 88° N 23:09:54 10° E
ARIANE 5 DEB (SYLDA) 4.1 23:05:44 47° NNW 23:06:17 50° N 23:16:40 10° E
ARIANE 5 R/B 2.9 23:07:02 61° SSE 23:07:02 61° SSE 23:10:57 10° E
Feng Yun 1-1 Rocket 4.2 23:01:43 10° NNE 23:07:31 87° WNW 23:13:27 10° SSW
ATLAS 3B R/B 2.5 23:08:15 58° WSW 23:08:15 58° WSW 23:14:26 10° S
GPS 2-04 Rocket1 3.2 23:10:48 60° SE 23:10:48 60° SE 23:14:26 10° SE
Cosmos 2333 Rocket 3.9 23:07:35 10° NNE 23:12:34 32° ENE 23:17:31 10° SE
Ariane H10 3.7 23:14:53 37° SW 23:17:10 54° S 23:39:50 10° E
Cosmos 990 Rocket 3.8 23:15:01 17° SSW 23:19:07 81° WNW 23:24:21 10° N
Cosmos 2227 4.1 23:15:26 15° SSW 23:20:17 78° WNW 23:26:01 10° N
USA 215 3.6 23:15:40 10° SE 23:22:08 62° NE 23:28:34 10° NNW
Cosmos 1867 3.4 23:21:12 47° NW 23:22:33 64° WSW 23:27:51 10° SSE
Genesis I 4.4 23:27:57 30° NNW 23:27:57 30° NNW 23:30:15 10° N
USA 238 DEB 3.7 23:22:07 10° NNW 23:29:10 89° ENE 23:36:16 10° SSE
USA 238 3.7 23:22:14 10° NNW 23:29:16 88° ENE 23:36:21 10° SSE
Meteor 1-31 Rocket 2.6 23:25:57 10° N 23:29:52 80° W 23:33:49 10° SSW
GPS 2-12 Rocket1 3.5 23:30:41 41° SW 23:31:35 46° SSW 23:36:12 10° SE
COSMOS 2428 3.0 23:30:44 35° WNW 23:32:22 43° WSW 23:37:46 10° S
Cosmos 1538 Rocket 4.4 23:32:58 38° WSW 23:32:58 38° WSW 23:37:44 10° S
CZ-3B Rocket 3.9 23:33:02 17° SW 23:33:41 17° SSW 23:36:26 10° SSE
Cosmos 1515 3.9 23:33:14 10° S 23:37:04 72° E 23:40:53 10° N
Cosmos 923 Rocket 4.0 23:33:25 10° N 23:38:44 84° ENE 23:44:02 10° SSE
Cosmos 1459 Rocket 4.3 23:33:01 10° N 23:39:16 71° E 23:45:27 10° S
Cosmos 2237 Rocket 3.1 23:35:03 10° N 23:40:27 51° ENE 23:45:53 10° SSE
Ariane Rocket 3.6 23:36:31 10° NNE 23:41:31 59° ESE 23:46:31 10° S
ARIANE 5 R/B 2.5 23:42:04 24° NNW 23:42:53 30° NNE 23:47:39 10° ENE
Cosmos 1125 Rocket 4.0 23:40:53 10° S 23:46:00 60° ESE 23:51:06 10° NNE
SJ-6F 4.3 23:43:31 10° N 23:47:42 82° W 23:51:54 10° SSW
ARIANE 5 R/B 3.1 23:45:58 24° WNW 23:47:58 45° N 23:51:16 10° ENE
Sea Lan Dem Rocket 3.2 23:40:22 22° W 23:48:09 85° S 23:52:09 10° E
Cosmos 1980 3.8 23:48:13 10° NNW 23:53:51 82° ENE 23:59:33 10° SSE
Cosmos 1340 3.3 23:51:46 10° S 23:55:30 58° E 23:59:12 10° NNE
BREEZE-M DEB (TANK) 3.8 23:56:24 13° NNW 23:56:24 13° NNW 23:57:40 10° N
